Location: *
(46.0770°N, 1.6444°E)
Time: 04:55:02
(UTC+00:00)

Resurs 1-3 - Pass Details

Date: 16 September 2019
Orbit: 630 x 632 km, 98.0° (Epoch: 20 October)

Event Time Altitude Azimuth Distance (km) Brightness Sun altitude
Exits shadow 19:55:46 39° 152° (SSE) 949 4.1 -19.5°
Maximum altitude 19:57:21 76° 75° (ENE) 658 3.5 -19.8°
Drops below altitude 10° 20:01:45 10° 350° (N) 2,025 6.7 -20.5°
Sets 20:03:57 0° 349° (NNW) 2,938 7.6 -20.8°
